sat.trackr.live / text

‹ back to catalog

STARLINK-5287

NORAD 55293 · 2023-010AA

PAYLOAD ACTIVE UNKNOWN

§ Identity

Operator
Country
US
Launch date
2023-01-19
Launch site
AFWTR
Launch vehicle
Mass (kg)
RCS (m²)

Purposes: comms

External: N2YO · Heavens-Above · Gunter

§ Orbital elements

Epoch: 2026-09-20T09:20:23.443008Z

Period
96.11 min
Inclination
69.9979°
Eccentricity
0.0003175
Mean motion
14.98335314 rev/d
Perigee alt
569.8 km
Apogee alt
574.2 km
Semi-major
6,950.2 km
B*
-3.4674e-5
RAAN
253.5318°
Arg perigee
273.0710°
Mean anomaly
87.0085°
Rev number
20,243

§ Raw data

STARLINK-52871 55293U 23010AA  26263.38916022 -.00000507  00000+0 -34674-4 0  99912 55293  69.9979 253.5318 0003175 273.0710  87.0085 14.98335314202438

JSON: /api/v1/satellites/55293 · /tle

For live sub-satellite position, see the globe view (requires WebGL).

§ Visibility from observer

Set your observer location to see the next 7 days of passes ≥ 10°. The values pass through the URL so the page stays shareable.

No JS? Fill the form by hand. The geolocation button needs JavaScript.